| time (UTC) | temp F | wind direction | speed MPH | gust MPH | rain 1hr in | rain 24hr in | rain mn in | humidity % | barometer mb |
| 20260505173004 | 79 | 57 | 4.0 | 16.0 | 0.00 | 0.00 | 0.00 | 74 | 1013.0 |
| 20260505172530 | 80 | 98 | 7.0 | 16.0 | 0.00 | 0.00 | 0.00 | 75 | 1013.1 |
| 20260505172031 | 80 | 84 | 5.0 | 15.0 | 0.00 | 0.00 | 0.00 | 73 | 1013.1 |
| 20260505171528 | 80 | 67 | 5.0 | 13.0 | 0.00 | 0.00 | 0.00 | 72 | 1013.1 |
| 20260505171503 | 79 | 67 | 6.0 | 12.0 | 0.00 | 0.00 | 0.00 | 72 | 1013.0 |
| 20260505171028 | 79 | 77 | 5.0 | 13.0 | 0.00 | 0.00 | 0.00 | 74 | 1013.1 |
| 20260505170529 | 79 | 59 | 6.0 | 14.0 | 0.00 | 0.00 | 0.00 | 73 | 1013.1 |
| 20260505170028 | 79 | 64 | 6.0 | 14.0 | 0.00 | 0.00 | 0.00 | 74 | 1013.1 |
| 20260505170003 | 79 | 71 | 6.0 | 14.0 | 0.00 | 0.00 | 0.00 | 73 | 1012.9 |
| 20260505165824 | 79 | 54 | 7.0 | 22.0 | 0.00 | 0.00 | 0.00 | 73 | 1013.1 |
| 20260505165029 | 79 | 87 | 8.0 | 22.0 | 0.00 | 0.00 | 0.00 | 71 | 1013.1 |
| 20260505164530 | 80 | 90 | 6.0 | 20.0 | 0.00 | 0.00 | 0.00 | 72 | 1013.4 |
| 20260505164503 | 79 | 127 | 9.0 | 17.0 | 0.00 | 0.00 | 0.00 | 72 | 1013.2 |
| 20260505164029 | 80 | 87 | 5.0 | 15.0 | 0.00 | 0.00 | 0.00 | 73 | 1013.4 |
| 20260505163530 | 80 | 62 | 7.0 | 17.0 | 0.00 | 0.00 | 0.00 | 72 | 1013.4 |
| 20260505163054 | 79 | 108 | 6.0 | 16.0 | 0.00 | 0.00 | 0.00 | 73 | 1013.2 |
| 20260505163030 | 79 | 81 | 8.0 | 17.0 | 0.00 | 0.00 | 0.00 | 73 | 1013.2 |
| 20260505162824 | 79 | 75 | 7.0 | 19.0 | 0.00 | 0.00 | 0.00 | 72 | 1013.2 |
| 20260505162319 | 79 | 74 | 7.0 | 19.0 | 0.00 | 0.00 | 0.00 | 71 | 1013.2 |
| 20260505161538 | 79 | 92 | 5.0 | 14.0 | 0.00 | 0.00 | 0.00 | 73 | 1013.1 |
| 20260505161528 | 79 | 86 | 9.0 | 19.0 | 0.00 | 0.00 | 0.00 | 73 | 1013.2 |
| 20260505161030 | 79 | 88 | 8.0 | 19.0 | 0.00 | 0.00 | 0.00 | 74 | 1013.2 |
| 20260505160529 | 79 | 103 | 7.0 | 21.0 | 0.00 | 0.00 | 0.00 | 75 | 1013.2 |
| 20260505153008 | 79 | 76 | 6.0 | 17.0 | 0.00 | 0.00 | 0.00 | 73 | 1013.1 |
| 20260505153005 | 78 | 81 | 8.0 | 17.0 | 0.00 | 0.00 | 0.00 | 73 | 1012.9 |
| 20260505152508 | 78 | 98 | 6.0 | 15.0 | 0.00 | 0.00 | 0.00 | 74 | 1013.1 |
| 20260505152301 | 78 | 53 | 8.0 | 21.0 | 0.00 | 0.00 | 0.00 | 73 | 1013.1 |
| 20260505151505 | 78 | 66 | 8.0 | 21.0 | 0.00 | 0.00 | 0.00 | 75 | 1013.1 |
| 20260505151502 | 78 | 65 | 7.0 | 21.0 | 0.00 | 0.00 | 0.00 | 75 | 1012.9 |
| 20260505151259 | 78 | 114 | 8.0 | 17.0 | 0.00 | 0.00 | 0.00 | 74 | 1013.1 |
| 20260505150506 | 78 | 129 | 8.0 | 17.0 | 0.00 | 0.00 | 0.00 | 75 | 1013.1 |
| 20260505150302 | 78 | 76 | 8.0 | 18.0 | 0.00 | 0.00 | 0.00 | 75 | 1013.1 |
| 20260505140455 | 77 | 65 | 6.0 | 13.0 | 0.00 | 0.00 | 0.00 | 75 | 1013.0 |
| 20260505124538 | 75 | 62 | 3.0 | 14.0 | 0.00 | 0.00 | 0.00 | 80 | 1012.7 |
| 20260505124428 | 76 | 99 | 6.0 | 14.0 | 0.00 | 0.00 | 0.00 | 80 | 1012.8 |
| 20260505124220 | 75 | 80 | 7.0 | 14.0 | 0.00 | 0.00 | 0.00 | 79 | 1012.8 |
| 20260505123427 | 75 | 78 | 6.0 | 13.0 | 0.00 | 0.00 | 0.00 | 79 | 1012.8 |
| 20260505123219 | 75 | 105 | 4.0 | 10.0 | 0.00 | 0.00 | 0.00 | 79 | 1012.7 |
| 20260505123150 | 75 | 73 | 6.0 | 13.0 | 0.00 | 0.00 | 0.00 | 80 | 1012.7 |
| 20260505122427 | 76 | 82 | 5.0 | 11.0 | 0.00 | 0.00 | 0.00 | 80 | 1012.7 |
| 20260505122219 | 75 | 86 | 4.0 | 11.0 | 0.00 | 0.00 | 0.00 | 81 | 1012.7 |
| 20260505121513 | 75 | 90 | 3.0 | 8.0 | 0.00 | 0.00 | 0.00 | 82 | 1012.4 |
| 20260505121416 | 75 | 92 | 4.0 | 9.0 | 0.00 | 0.00 | 0.00 | 82 | 1012.5 |
| 20260505121203 | 75 | 82 | 3.0 | 9.0 | 0.00 | 0.00 | 0.00 | 82 | 1012.5 |
| 20260505120410 | 75 | 85 | 3.0 | 8.0 | 0.00 | 0.00 | 0.00 | 82 | 1012.5 |
| 20260505120153 | 74 | 81 | 3.0 | 8.0 | 0.00 | 0.00 | 0.00 | 83 | 1012.0 |
| 20260505120130 | 74 | 87 | 2.0 | 8.0 | 0.00 | 0.00 | 0.00 | 82 | 1012.4 |
| 20260505115407 | 74 | 82 | 3.0 | 8.0 | 0.00 | 0.00 | 0.00 | 83 | 1012.0 |
| 20260505114907 | 74 | 129 | 3.0 | 7.0 | 0.00 | 0.00 | 0.00 | 84 | 1012.0 |
| 20260505114504 | 73 | 71 | 3.0 | 7.0 | 0.00 | 0.00 | 0.00 | 84 | 1011.9 |
| 20260505114407 | 73 | 92 | 3.0 | 6.0 | 0.00 | 0.00 | 0.00 | 84 | 1012.0 |
| 20260505113907 | 73 | 87 | 2.0 | 6.0 | 0.00 | 0.00 | 0.00 | 84 | 1012.0 |
| 20260505113406 | 72 | 80 | 1.0 | 5.0 | 0.00 | 0.00 | 0.00 | 85 | 1012.0 |
| 20260505113058 | 72 | 84 | 1.0 | 5.0 | 0.00 | 0.00 | 0.00 | 85 | 1011.9 |
| 20260505112905 | 72 | 88 | 0.0 | 5.0 | 0.00 | 0.00 | 0.00 | 86 | 1011.7 |
| 20260505112406 | 72 | 80 | 0.0 | 0.0 | 0.00 | 0.00 | 0.00 | 86 | 1011.7 |
| 20260505111904 | 71 | 81 | 0.0 | 0.0 | 0.00 | 0.00 | 0.00 | 86 | 1011.7 |
| 20260505111651 | 71 | 121 | 0.0 | 0.0 | 0.00 | 0.00 | 0.00 | 86 | 1011.6 |
| 20260505111621 | 71 | 82 | 0.0 | 0.0 | 0.00 | 0.00 | 0.00 | 86 | 1011.5 |
| 20260505110901 | 71 | 112 | 0.0 | 0.0 | 0.00 | 0.00 | 0.00 | 87 | 1011.6 |
| 20260505110649 | 71 | 102 | 0.0 | 0.0 | 0.00 | 0.00 | 0.00 | 87 | 1011.6 |
| 20260505101900 | 69 | 98 | 0.0 | 0.0 | 0.00 | 0.00 | 0.00 | 88 | 1011.3 |
| 20260505101545 | 69 | 98 | 0.0 | 0.0 | 0.00 | 0.00 | 0.00 | 88 | 1010.9 |
| 20260505101402 | 69 | 98 | 0.0 | 0.0 | 0.00 | 0.00 | 0.00 | 88 | 1011.0 |
| 20260505100901 | 69 | 98 | 0.0 | 0.0 | 0.00 | 0.00 | 0.00 | 88 | 1011.0 |
| 20260505100727 | 69 | 98 | 0.0 | 0.0 | 0.00 | 0.00 | 0.00 | 88 | 1010.9 |
| 20260505100721 | 69 | 98 | 0.0 | 0.0 | 0.00 | 0.00 | 0.00 | 89 | 1011.0 |
| 20260505100139 | 68 | 98 | 0.0 | 0.0 | 0.00 | 0.03 | 0.00 | 89 | 1010.8 |
| 20260505095402 | 69 | 98 | 0.0 | 0.0 | 0.00 | 0.00 | 0.00 | 88 | 1010.9 |
| 20260505094900 | 69 | 98 | 0.0 | 0.0 | 0.00 | 0.00 | 0.00 | 88 | 1010.9 |
| 20260505094651 | 69 | 98 | 0.0 | 0.0 | 0.00 | 0.00 | 0.00 | 88 | 1010.8 |
| 20260505094620 | 68 | 98 | 0.0 | 0.0 | 0.00 | 0.03 | 0.00 | 88 | 1010.7 |
| 20260505093902 | 69 | 98 | 0.0 | 0.0 | 0.00 | 0.00 | 0.00 | 87 | 1010.8 |
| 20260505093402 | 69 | 98 | 0.0 | 0.0 | 0.00 | 0.00 | 0.00 | 87 | 1010.8 |
| 20260505093033 | 69 | 98 | 0.0 | 0.0 | 0.00 | 0.03 | 0.00 | 87 | 1010.7 |
| 20260505092900 | 69 | 98 | 0.0 | 0.0 | 0.00 | 0.00 | 0.00 | 87 | 1010.9 |
| 20260505092528 | 72 | 92 | 1.0 | 3.0 | 0.00 | 0.03 | 0.00 | 85 | 1010.5 |
| 20260505092522 | 72 | 84 | 1.0 | 3.0 | 0.00 | 0.03 | 0.00 | 84 | 1011.0 |
| 20260505092512 | 73 | 82 | 2.0 | 5.0 | 0.00 | 0.03 | 0.00 | 83 | 1011.5 |
| 20260505092508 | 72 | 82 | 2.0 | 5.0 | 0.00 | 0.03 | 0.00 | 82 | 1011.9 |
| 20260505092503 | 73 | 94 | 2.0 | 5.0 | 0.00 | 0.03 | 0.00 | 83 | 1012.0 |
| 20260505092457 | 73 | 98 | 2.0 | 3.0 | 0.00 | 0.03 | 0.00 | 82 | 1012.0 |
| 20260505092452 | 73 | 93 | 2.0 | 5.0 | 0.00 | 0.03 | 0.00 | 82 | 1012.0 |
| 20260505092447 | 73 | 92 | 3.0 | 6.0 | 0.00 | 0.03 | 0.00 | 82 | 1012.0 |
| 20260505092433 | 70 | 98 | 0.0 | 0.0 | 0.00 | 0.00 | 0.00 | 87 | 1010.9 |
| 20260505092144 | 73 | 69 | 3.0 | 7.0 | 0.00 | 0.03 | 0.00 | 83 | 1012.0 |
| 20260505092139 | 71 | 87 | 1.0 | 2.0 | 0.00 | 0.03 | 0.00 | 85 | 1010.5 |
| 20260505092059 | 70 | 98 | 0.0 | 0.0 | 0.00 | 0.00 | 0.00 | 86 | 1010.9 |
| 20260505091838 | 72 | 97 | 2.0 | 3.0 | 0.00 | 0.03 | 0.00 | 84 | 1010.9 |
| 20260505091833 | 72 | 86 | 1.0 | 3.0 | 0.00 | 0.03 | 0.00 | 85 | 1011.0 |
| 20260505091827 | 72 | 98 | 1.0 | 3.0 | 0.00 | 0.03 | 0.00 | 84 | 1011.0 |
| 20260505091529 | 72 | 89 | 2.0 | 5.0 | 0.00 | 0.03 | 0.00 | 83 | 1011.1 |
| 20260505091525 | 73 | 96 | 3.0 | 5.0 | 0.00 | 0.03 | 0.00 | 83 | 1011.1 |
| 20260505091519 | 72 | 92 | 2.0 | 5.0 | 0.00 | 0.03 | 0.00 | 83 | 1011.2 |
| 20260505091514 | 72 | 94 | 2.0 | 5.0 | 0.00 | 0.03 | 0.00 | 83 | 1011.2 |
| 20260505091510 | 72 | 85 | 2.0 | 5.0 | 0.00 | 0.03 | 0.00 | 83 | 1011.2 |
| 20260505091449 | 70 | 98 | 0.0 | 0.0 | 0.00 | 0.00 | 0.00 | 87 | 1010.7 |
| 20260505091019 | 73 | 84 | 3.0 | 6.0 | 0.00 | 0.03 | 0.00 | 83 | 1011.5 |
| 20260505091014 | 72 | 78 | 3.0 | 7.0 | 0.00 | 0.03 | 0.00 | 82 | 1011.5 |
| 20260505091008 | 72 | 101 | 3.0 | 7.0 | 0.00 | 0.03 | 0.00 | 82 | 1011.5 |
| 20260505090957 | 72 | 88 | 3.0 | 6.0 | 0.00 | 0.03 | 0.00 | 82 | 1011.5 |
| 20260505090953 | 72 | 110 | 3.0 | 6.0 | 0.00 | 0.03 | 0.00 | 82 | 1011.5 |
| 20260505090947 | 72 | 88 | 2.0 | 6.0 | 0.00 | 0.03 | 0.00 | 82 | 1012.1 |
| 20260505090942 | 72 | 93 | 2.0 | 3.0 | 0.00 | 0.03 | 0.00 | 82 | 1012.1 |
| 20260505090937 | 72 | 83 | 1.0 | 3.0 | 0.00 | 0.03 | 0.00 | 82 | 1012.1 |
| 20260505090925 | 70 | 98 | 0.0 | 0.0 | 0.00 | 0.00 | 0.00 | 86 | 1010.7 |
| 20260505090631 | 72 | 87 | 2.0 | 5.0 | 0.00 | 0.03 | 0.00 | 82 | 1011.9 |
| 20260505090626 | 72 | 100 | 2.0 | 5.0 | 0.00 | 0.03 | 0.00 | 82 | 1011.9 |
| 20260505090552 | 70 | 98 | 0.0 | 0.0 | 0.00 | 0.03 | 0.00 | 86 | 1010.7 |
| 20260505090332 | 71 | 98 | 0.0 | 0.0 | 0.00 | 0.03 | 0.00 | 86 | 1010.6 |
| 20260505090006 | 70 | 98 | 0.0 | 0.0 | 0.00 | 0.03 | 0.00 | 87 | 1010.4 |
| 20260505085745 | 72 | 88 | 1.0 | 3.0 | 0.00 | 0.03 | 0.00 | 85 | 1010.5 |
| 20260505085740 | 72 | 97 | 1.0 | 3.0 | 0.00 | 0.03 | 0.00 | 85 | 1010.5 |
| 20260505085735 | 72 | 101 | 2.0 | 3.0 | 0.00 | 0.03 | 0.00 | 84 | 1010.9 |
| 20260505085441 | 72 | 107 | 2.0 | 5.0 | 0.00 | 0.03 | 0.00 | 85 | 1010.9 |
| 20260505085435 | 72 | 98 | 2.0 | 5.0 | 0.00 | 0.03 | 0.00 | 85 | 1011.0 |
| 20260505085422 | 71 | 98 | 0.0 | 0.0 | 0.00 | 0.03 | 0.00 | 86 | 1010.6 |
| 20260505085130 | 72 | 110 | 1.0 | 3.0 | 0.00 | 0.03 | 0.00 | 85 | 1011.0 |
| 20260505085053 | 70 | 98 | 0.0 | 0.0 | 0.00 | 0.03 | 0.00 | 85 | 1010.6 |
| 20260505084536 | 72 | 85 | 1.0 | 3.0 | 0.00 | 0.03 | 0.00 | 84 | 1011.0 |
| 20260505084530 | 72 | 90 | 1.0 | 3.0 | 0.00 | 0.03 | 0.00 | 83 | 1011.1 |
| 20260505084525 | 71 | 104 | 0.0 | 0.0 | 0.00 | 0.03 | 0.00 | 85 | 1010.5 |
| 20260505084522 | 70 | 98 | 0.0 | 0.0 | 0.00 | 0.03 | 0.00 | 85 | 1010.3 |
| 20260505084502 | 71 | 98 | 0.0 | 0.0 | 0.00 | 0.03 | 0.00 | 85 | 1010.4 |
| 20260505084224 | 71 | 98 | 0.0 | 0.0 | 0.00 | 0.03 | 0.00 | 85 | 1010.4 |
| 20260505083926 | 71 | 105 | 0.0 | 2.0 | 0.00 | 0.03 | 0.00 | 85 | 1010.5 |
| 20260505083921 | 71 | 88 | 1.0 | 2.0 | 0.00 | 0.03 | 0.00 | 85 | 1010.5 |
| 20260505083916 | 71 | 104 | 0.0 | 1.0 | 0.00 | 0.03 | 0.00 | 84 | 1010.5 |
| 20260505083905 | 71 | 98 | 0.0 | 0.0 | 0.00 | 0.03 | 0.00 | 85 | 1010.4 |
| 20260505083858 | 71 | 104 | 0.0 | 0.0 | 0.00 | 0.03 | 0.00 | 84 | 1010.5 |
| 20260505041543 | 72 | 99 | 2.0 | 6.0 | 0.00 | 0.03 | 0.00 | 83 | 1012.1 |
| 20260505041331 | 73 | 91 | 3.0 | 5.0 | 0.00 | 0.03 | 0.00 | 83 | 1012.2 |
| 20260505040829 | 73 | 71 | 2.0 | 4.0 | 0.00 | 0.03 | 0.00 | 83 | 1012.2 |
| 20260505040331 | 73 | 89 | 2.0 | 5.0 | 0.00 | 0.03 | 0.00 | 83 | 1012.2 |
| 20260505040012 | 72 | 95 | 1.0 | 5.0 | 0.00 | 0.04 | 0.03 | 83 | 1012.3 |
| 20260505035826 | 73 | 94 | 2.0 | 5.0 | 0.00 | 0.03 | 0.03 | 83 | 1012.4 |
| 20260505035617 | 73 | 104 | 2.0 | 6.0 | 0.00 | 0.03 | 0.03 | 82 | 1012.4 |
| 20260505034817 | 73 | 105 | 3.0 | 6.0 | 0.00 | 0.03 | 0.03 | 82 | 1012.4 |
| 20260505034503 | 73 | 116 | 2.0 | 5.0 | 0.00 | 0.04 | 0.03 | 82 | 1012.3 |
| 20260505034315 | 73 | 120 | 3.0 | 7.0 | 0.00 | 0.03 | 0.03 | 82 | 1012.4 |
| 20260505033817 | 73 | 97 | 3.0 | 7.0 | 0.00 | 0.03 | 0.03 | 82 | 1012.4 |
| 20260505033315 | 73 | 88 | 3.0 | 6.0 | 0.00 | 0.03 | 0.03 | 82 | 1012.4 |
| 20260505033117 | 73 | 84 | 4.0 | 6.0 | 0.00 | 0.03 | 0.03 | 82 | 1012.6 |
| 20260505033038 | 73 | 71 | 3.0 | 5.0 | 0.00 | 0.04 | 0.03 | 82 | 1012.4 |
| 20260505032312 | 73 | 110 | 4.0 | 7.0 | 0.00 | 0.03 | 0.03 | 82 | 1012.6 |
| 20260505031814 | 74 | 80 | 4.0 | 8.0 | 0.00 | 0.03 | 0.03 | 82 | 1012.6 |
| 20260505031605 | 74 | 87 | 3.0 | 8.0 | 0.00 | 0.03 | 0.03 | 82 | 1012.6 |
| 20260505031538 | 73 | 80 | 4.0 | 8.0 | 0.00 | 0.04 | 0.03 | 82 | 1012.4 |
| 20260505030811 | 74 | 104 | 3.0 | 7.0 | 0.00 | 0.04 | 0.03 | 81 | 1012.6 |
| 20260505030404 | 74 | 123 | 4.0 | 7.0 | 0.00 | 0.04 | 0.03 | 81 | 1012.5 |
| 20260505030340 | 74 | 86 | 4.0 | 7.0 | 0.00 | 0.04 | 0.03 | 82 | 1012.6 |
| 20260505030029 | 73 | 74 | 3.0 | 7.0 | 0.00 | 0.04 | 0.03 | 81 | 1012.4 |
| 20260505025309 | 74 | 90 | 3.0 | 7.0 | 0.00 | 0.04 | 0.03 | 82 | 1012.5 |
| 20260505024805 | 74 | 86 | 4.0 | 8.0 | 0.00 | 0.04 | 0.03 | 81 | 1012.5 |
| 20260505024531 | 73 | 71 | 2.0 | 8.0 | 0.00 | 0.04 | 0.03 | 81 | 1012.5 |
| 20260505024306 | 74 | 62 | 5.0 | 8.0 | 0.00 | 0.04 | 0.03 | 81 | 1012.6 |
| 20260505023804 | 74 | 92 | 4.0 | 9.0 | 0.00 | 0.04 | 0.03 | 81 | 1012.6 |
| 20260505023310 | 74 | 95 | 5.0 | 11.0 | 0.00 | 0.04 | 0.03 | 81 | 1012.6 |
| 20260505023006 | 74 | 86 | 5.0 | 11.0 | 0.00 | 0.04 | 0.03 | 81 | 1012.4 |
| 20260505022808 | 74 | 95 | 5.0 | 11.0 | 0.00 | 0.04 | 0.03 | 81 | 1012.6 |
| 20260505022312 | 74 | 80 | 4.0 | 9.0 | 0.00 | 0.04 | 0.03 | 81 | 1012.6 |
| 20260505021807 | 74 | 110 | 4.0 | 11.0 | 0.00 | 0.04 | 0.03 | 81 | 1012.6 |
| 20260505021554 | 74 | 63 | 3.0 | 11.0 | 0.00 | 0.04 | 0.03 | 81 | 1012.4 |
| 20260505021304 | 74 | 75 | 4.0 | 11.0 | 0.00 | 0.04 | 0.03 | 82 | 1012.5 |
| 20260505020802 | 74 | 80 | 4.0 | 9.0 | 0.00 | 0.04 | 0.03 | 82 | 1012.5 |
| 20260505020301 | 74 | 80 | 5.0 | 9.0 | 0.00 | 0.04 | 0.03 | 82 | 1012.5 |
| 20260505020047 | 74 | 76 | 5.0 | 9.0 | 0.00 | 0.04 | 0.03 | 82 | 1012.4 |
| 20260505015802 | 74 | 123 | 5.0 | 9.0 | 0.00 | 0.04 | 0.03 | 82 | 1012.5 |
| 20260505015303 | 74 | 102 | 4.0 | 8.0 | 0.00 | 0.04 | 0.03 | 82 | 1012.5 |
| 20260505014801 | 74 | 99 | 5.0 | 10.0 | 0.00 | 0.04 | 0.03 | 82 | 1012.5 |
| 20260505014531 | 74 | 98 | 3.0 | 10.0 | 0.00 | 0.04 | 0.03 | 82 | 1012.4 |
| 20260505014301 | 74 | 92 | 5.0 | 10.0 | 0.00 | 0.04 | 0.03 | 82 | 1012.6 |
| 20260505013801 | 74 | 113 | 4.0 | 9.0 | 0.00 | 0.04 | 0.03 | 82 | 1012.6 |
| 20260505013301 | 74 | 95 | 4.0 | 8.0 | 0.00 | 0.04 | 0.03 | 82 | 1012.6 |
| 20260505013032 | 74 | 95 | 4.0 | 7.0 | 0.00 | 0.04 | 0.03 | 81 | 1012.3 |
| 20260505012802 | 74 | 86 | 3.0 | 7.0 | 0.00 | 0.04 | 0.03 | 82 | 1012.5 |
| 20260505012304 | 74 | 117 | 3.0 | 7.0 | 0.00 | 0.04 | 0.03 | 82 | 1012.5 |
| 20260505011802 | 74 | 85 | 3.0 | 8.0 | 0.00 | 0.04 | 0.03 | 82 | 1012.5 |
| 20260505011523 | 73 | 96 | 2.0 | 8.0 | 0.00 | 0.04 | 0.03 | 82 | 1012.0 |
| 20260505011302 | 74 | 92 | 2.0 | 8.0 | 0.00 | 0.04 | 0.03 | 82 | 1012.1 |
| 20260505010803 | 74 | 71 | 2.0 | 7.0 | 0.00 | 0.04 | 0.03 | 81 | 1012.1 |
| 20260505010302 | 74 | 92 | 3.0 | 7.0 | 0.00 | 0.04 | 0.03 | 81 | 1012.1 |
| 20260505010013 | 73 | 75 | 2.0 | 6.0 | 0.00 | 0.04 | 0.03 | 81 | 1011.9 |
| 20260505005803 | 74 | 76 | 3.0 | 6.0 | 0.00 | 0.04 | 0.03 | 81 | 1012.0 |
| 20260505005303 | 74 | 83 | 2.0 | 6.0 | 0.00 | 0.04 | 0.03 | 81 | 1012.0 |
| 20260505004804 | 74 | 90 | 3.0 | 9.0 | 0.00 | 0.04 | 0.03 | 81 | 1012.0 |
| 20260505004502 | 74 | 120 | 1.0 | 9.0 | 0.00 | 0.04 | 0.03 | 81 | 1011.8 |
| 20260505004302 | 74 | 86 | 4.0 | 9.0 | 0.00 | 0.04 | 0.03 | 81 | 1011.9 |
| 20260505003802 | 74 | 97 | 4.0 | 9.0 | 0.00 | 0.04 | 0.03 | 81 | 1011.9 |
| 20260505003302 | 74 | 84 | 5.0 | 14.0 | 0.00 | 0.04 | 0.03 | 81 | 1011.9 |
| 20260505003003 | 74 | 91 | 3.0 | 13.0 | 0.00 | 0.04 | 0.03 | 81 | 1011.9 |
| 20260505002803 | 74 | 109 | 5.0 | 14.0 | 0.00 | 0.04 | 0.03 | 81 | 1012.0 |
| 20260505002553 | 74 | 96 | 5.0 | 10.0 | 0.00 | 0.04 | 0.03 | 81 | 1012.0 |
| 20260505001803 | 74 | 107 | 5.0 | 9.0 | 0.00 | 0.04 | 0.03 | 81 | 1012.0 |
| 20260505001503 | 74 | 80 | 4.0 | 9.0 | 0.00 | 0.04 | 0.03 | 81 | 1011.4 |
| 20260505001302 | 74 | 68 | 4.0 | 8.0 | 0.00 | 0.04 | 0.03 | 82 | 1011.5 |
| 20260505000803 | 74 | 88 | 4.0 | 8.0 | 0.00 | 0.04 | 0.03 | 82 | 1011.5 |
| 20260505000304 | 74 | 93 | 5.0 | 10.0 | 0.00 | 0.04 | 0.03 | 82 | 1011.5 |
| 20260505000005 | 74 | 101 | 4.0 | 10.0 | 0.00 | 0.04 | 0.03 | 82 | 1011.4 |
| 20260504235803 | 74 | 103 | 4.0 | 10.0 | 0.00 | 0.04 | 0.03 | 82 | 1011.5 |
| 20260504235304 | 74 | 89 | 3.0 | 9.0 | 0.00 | 0.04 | 0.03 | 83 | 1011.5 |
| 20260504234804 | 73 | 88 | 2.0 | 9.0 | 0.00 | 0.04 | 0.03 | 84 | 1011.5 |
| 20260504234551 | 73 | 84 | 1.0 | 7.0 | 0.00 | 0.04 | 0.03 | 86 | 1011.3 |
| 20260504234514 | 73 | 130 | 3.0 | 9.0 | 0.00 | 0.04 | 0.03 | 84 | 1011.1 |
| 20260504233803 | 73 | 61 | 1.0 | 3.0 | 0.00 | 0.04 | 0.03 | 86 | 1011.3 |
| 20260504233303 | 73 | 71 | 1.0 | 3.0 | 0.00 | 0.04 | 0.03 | 87 | 1011.3 |
| 20260504233005 | 73 | 69 | 0.0 | 3.0 | 0.00 | 0.04 | 0.03 | 87 | 1011.3 |
| 20260504232802 | 73 | 57 | 2.0 | 3.0 | 0.00 | 0.04 | 0.03 | 86 | 1011.5 |
| 20260504232300 | 73 | 65 | 2.0 | 4.0 | 0.00 | 0.04 | 0.03 | 86 | 1011.5 |
| 20260504231757 | 73 | 55 | 2.0 | 11.0 | 0.00 | 0.04 | 0.03 | 85 | 1011.5 |
| 20260504231546 | 74 | 92 | 3.0 | 11.0 | 0.00 | 0.04 | 0.03 | 85 | 1011.5 |
| 20260504231513 | 73 | 51 | 1.0 | 6.0 | 0.00 | 0.04 | 0.03 | 85 | 1011.4 |
| 20260504230757 | 74 | 78 | 3.0 | 13.0 | 0.00 | 0.04 | 0.03 | 83 | 1011.5 |
| 20260504230257 | 74 | 81 | 4.0 | 13.0 | 0.00 | 0.04 | 0.03 | 82 | 1011.5 |
| 20260504230047 | 75 | 94 | 6.0 | 12.0 | 0.00 | 0.04 | 0.03 | 82 | 1011.4 |
| 20260504230013 | 74 | 55 | 3.0 | 13.0 | 0.00 | 0.04 | 0.03 | 82 | 1011.3 |
| 20260504225257 | 75 | 79 | 7.0 | 12.0 | 0.00 | 0.04 | 0.03 | 81 | 1011.4 |
| 20260504224758 | 75 | 72 | 7.0 | 16.0 | 0.00 | 0.04 | 0.03 | 80 | 1011.4 |
| 20260504224508 | 75 | 87 | 7.0 | 16.0 | 0.00 | 0.04 | 0.03 | 80 | 1011.4 |
| 20260504224256 | 75 | 98 | 6.0 | 16.0 | 0.00 | 0.04 | 0.03 | 79 | 1011.5 |
| 20260504224039 | 75 | 65 | 6.0 | 15.0 | 0.00 | 0.04 | 0.03 | 79 | 1011.5 |
| 20260504223249 | 76 | 74 | 4.0 | 15.0 | 0.00 | 0.04 | 0.03 | 78 | 1011.5 |
| 20260504223005 | 75 | 64 | 4.0 | 13.0 | 0.00 | 0.04 | 0.03 | 78 | 1011.3 |
| 20260504222747 | 76 | 46 | 4.0 | 15.0 | 0.00 | 0.04 | 0.03 | 78 | 1011.5 |
| 20260504222248 | 75 | 55 | 6.0 | 15.0 | 0.00 | 0.04 | 0.03 | 78 | 1011.5 |
| 20260504221749 | 75 | 79 | 7.0 | 16.0 | 0.00 | 0.04 | 0.03 | 78 | 1011.5 |
| 20260504221503 | 75 | 105 | 8.0 | 15.0 | 0.00 | 0.04 | 0.03 | 78 | 1011.4 |
| 20260504221247 | 75 | 49 | 6.0 | 16.0 | 0.00 | 0.04 | 0.03 | 78 | 1011.5 |
| 20260504220744 | 75 | 92 | 7.0 | 16.0 | 0.00 | 0.04 | 0.03 | 79 | 1011.5 |
| 20260504220246 | 75 | 86 | 7.0 | 16.0 | 0.00 | 0.04 | 0.03 | 79 | 1011.5 |
| 20260504220005 | 75 | 82 | 8.0 | 15.0 | 0.00 | 0.04 | 0.03 | 78 | 1011.4 |
| 20260504215744 | 75 | 92 | 6.0 | 13.0 | 0.00 | 0.04 | 0.03 | 79 | 1011.5 |
| 20260504215240 | 75 | 86 | 7.0 | 16.0 | 0.00 | 0.04 | 0.03 | 79 | 1011.5 |
| 20260504214740 | 75 | 74 | 8.0 | 16.0 | 0.00 | 0.04 | 0.03 | 79 | 1011.5 |
| 20260504214503 | 75 | 81 | 9.0 | 16.0 | 0.00 | 0.04 | 0.03 | 78 | 1011.4 |
| 20260504214242 | 75 | 78 | 8.0 | 15.0 | 0.00 | 0.04 | 0.03 | 78 | 1011.5 |
| 20260504213742 | 75 | 95 | 6.0 | 15.0 | 0.00 | 0.04 | 0.03 | 78 | 1011.5 |
| 20260504213539 | 75 | 123 | 6.0 | 14.0 | 0.00 | 0.04 | 0.03 | 78 | 1011.5 |
| 20260504213122 | 76 | 56 | 7.0 | 16.0 | 0.00 | 0.04 | 0.03 | 78 | 1011.6 |
| 20260504213048 | 75 | 65 | 3.0 | 14.0 | 0.00 | 0.04 | 0.03 | 78 | 1011.5 |
| 20260504212811 | 76 | 51 | 7.0 | 14.0 | 0.00 | 0.04 | 0.03 | 78 | 1011.6 |
| 20260504211733 | 76 | 83 | 7.0 | 16.0 | 0.00 | 0.04 | 0.03 | 78 | 1011.6 |
| 20260504211504 | 76 | 82 | 5.0 | 16.0 | 0.00 | 0.04 | 0.03 | 78 | 1011.4 |
| 20260504211235 | 76 | 83 | 7.0 | 18.0 | 0.00 | 0.04 | 0.03 | 77 | 1011.5 |
| 20260504210734 | 76 | 88 | 9.0 | 18.0 | 0.00 | 0.04 | 0.03 | 77 | 1011.5 |
| 20260504210233 | 76 | 104 | 10.0 | 19.0 | 0.00 | 0.04 | 0.03 | 77 | 1011.5 |
| 20260504210019 | 76 | 92 | 9.0 | 19.0 | 0.00 | 0.04 | 0.03 | 76 | 1011.5 |
| 20260504205734 | 76 | 76 | 10.0 | 19.0 | 0.00 | 0.04 | 0.03 | 76 | 1011.6 |
| 20260504205234 | 76 | 90 | 10.0 | 19.0 | 0.00 | 0.04 | 0.03 | 76 | 1011.6 |
| 20260504205025 | 77 | 71 | 9.0 | 19.0 | 0.00 | 0.04 | 0.03 | 77 | 1011.6 |
| 20260504204545 | 76 | 60 | 10.0 | 18.0 | 0.00 | 0.04 | 0.03 | 77 | 1011.5 |
| 20260504204232 | 76 | 79 | 9.0 | 19.0 | 0.00 | 0.04 | 0.03 | 77 | 1011.7 |
| 20260504204022 | 76 | 59 | 8.0 | 18.0 | 0.00 | 0.04 | 0.03 | 77 | 1011.7 |
| 20260504203520 | 77 | 105 | 7.0 | 18.0 | 0.00 | 0.04 | 0.03 | 77 | 1011.7 |
| 20260504203021 | 76 | 75 | 5.0 | 18.0 | 0.00 | 0.04 | 0.03 | 78 | 1011.8 |
| 20260504202731 | 76 | 55 | 6.0 | 18.0 | 0.00 | 0.04 | 0.03 | 78 | 1011.9 |
| 20260504202525 | 77 | 76 | 6.0 | 18.0 | 0.00 | 0.04 | 0.03 | 77 | 1011.9 |
| 20260504201728 | 76 | 76 | 6.0 | 15.0 | 0.00 | 0.04 | 0.03 | 78 | 1011.9 |
| 20260504201507 | 76 | 82 | 7.0 | 15.0 | 0.00 | 0.04 | 0.03 | 78 | 1011.9 |
| 20260504201229 | 76 | 86 | 6.0 | 14.0 | 0.00 | 0.04 | 0.03 | 78 | 1012.0 |
| 20260504201027 | 76 | 44 | 5.0 | 13.0 | 0.00 | 0.04 | 0.03 | 78 | 1012.0 |
| 20260504200230 | 76 | 81 | 7.0 | 19.0 | 0.00 | 0.04 | 0.03 | 79 | 1012.0 |
| 20260504200005 | 75 | 79 | 4.0 | 18.0 | 0.00 | 0.04 | 0.03 | 79 | 1012.2 |
| 20260504195730 | 75 | 71 | 7.0 | 19.0 | 0.00 | 0.04 | 0.03 | 79 | 1012.3 |
| 20260504195229 | 76 | 61 | 6.0 | 12.0 | 0.00 | 0.04 | 0.03 | 79 | 1012.3 |
| 20260504194728 | 76 | 105 | 8.0 | 21.0 | 0.00 | 0.04 | 0.03 | 79 | 1012.3 |
| 20260504194503 | 75 | 66 | 7.0 | 19.0 | 0.00 | 0.04 | 0.03 | 79 | 1012.3 |
| 20260504194229 | 76 | 104 | 9.0 | 21.0 | 0.00 | 0.04 | 0.03 | 79 | 1012.4 |
| 20260504193730 | 76 | 130 | 9.0 | 21.0 | 0.00 | 0.04 | 0.03 | 78 | 1012.4 |
| 20260504193230 | 76 | 89 | 8.0 | 20.0 | 0.00 | 0.04 | 0.03 | 77 | 1012.4 |
| 20260504193002 | 76 | 74 | 8.0 | 19.0 | 0.00 | 0.04 | 0.03 | 77 | 1012.2 |
| 20260504192730 | 77 | 83 | 7.0 | 20.0 | 0.00 | 0.04 | 0.03 | 77 | 1012.3 |
| 20260504192230 | 77 | 89 | 10.0 | 23.0 | 0.00 | 0.04 | 0.03 | 77 | 1012.3 |
| 20260504191730 | 77 | 80 | 10.0 | 23.0 | 0.00 | 0.04 | 0.03 | 77 | 1012.3 |
| 20260504191505 | 77 | 111 | 12.0 | 19.0 | 0.00 | 0.04 | 0.03 | 77 | 1012.4 |
| 20260504191228 | 77 | 100 | 8.0 | 20.0 | 0.00 | 0.04 | 0.03 | 77 | 1012.6 |
| 20260504190730 | 77 | 39 | 10.0 | 22.0 | 0.00 | 0.04 | 0.03 | 77 | 1012.6 |
| 20260504190230 | 76 | 67 | 8.0 | 22.0 | 0.00 | 0.04 | 0.03 | 78 | 1012.6 |
| 20260504185729 | 76 | 84 | 6.0 | 16.0 | 0.00 | 0.04 | 0.03 | 79 | 1012.8 |
| 20260504185534 | 76 | 115 | 6.0 | 18.0 | 0.00 | 0.04 | 0.03 | 78 | 1012.8 |
| 20260504184729 | 76 | 78 | 7.0 | 19.0 | 0.00 | 0.04 | 0.03 | 78 | 1012.8 |
| 20260504184539 | 75 | 61 | 6.0 | 18.0 | 0.00 | 0.04 | 0.03 | 79 | 1012.9 |
| 20260504184230 | 76 | 41 | 8.0 | 19.0 | 0.00 | 0.04 | 0.03 | 78 | 1013.1 |
| 20260504183732 | 76 | 11 | 8.0 | 19.0 | 0.00 | 0.04 | 0.03 | 78 | 1013.1 |
| 20260504183232 | 76 | 74 | 9.0 | 22.0 | 0.00 | 0.04 | 0.03 | 77 | 1013.1 |
| 20260504183036 | 75 | 78 | 9.0 | 22.0 | 0.00 | 0.04 | 0.03 | 78 | 1012.9 |
| 20260504182732 | 76 | 66 | 9.0 | 22.0 | 0.00 | 0.04 | 0.03 | 78 | 1013.1 |
| 20260504182230 | 76 | 91 | 9.0 | 19.0 | 0.00 | 0.04 | 0.03 | 77 | 1013.1 |
| 20260504181730 | 76 | 99 | 9.0 | 19.0 | 0.00 | 0.04 | 0.03 | 77 | 1013.1 |
| 20260504181506 | 76 | 86 | 10.0 | 19.0 | 0.00 | 0.04 | 0.03 | 76 | 1013.0 |
| 20260504181228 | 77 | 117 | 6.0 | 19.0 | 0.00 | 0.04 | 0.03 | 76 | 1013.1 |
| 20260504180728 | 77 | 80 | 9.0 | 19.0 | 0.00 | 0.04 | 0.03 | 77 | 1013.1 |
| 20260504180227 | 77 | 47 | 10.0 | 19.0 | 0.00 | 0.04 | 0.03 | 76 | 1013.1 |
| 20260504180002 | 76 | 85 | 9.0 | 19.0 | 0.00 | 0.04 | 0.03 | 75 | 1013.0 |
| 20260504175728 | 77 | 78 | 8.0 | 19.0 | 0.00 | 0.04 | 0.03 | 76 | 1013.2 |
| 20260504175527 | 77 | 76 | 9.0 | 19.0 | 0.00 | 0.04 | 0.03 | 76 | 1013.2 |
| 20260504175025 | 77 | 87 | 9.0 | 19.0 | 0.00 | 0.04 | 0.03 | 76 | 1013.2 |
| 20260504174502 | 77 | 108 | 10.0 | 19.0 | 0.00 | 0.04 | 0.03 | 75 | 1013.1 |
| 20260504174227 | 78 | 78 | 7.0 | 15.0 | 0.00 | 0.04 | 0.03 | 75 | 1013.3 |
| 20260504174024 | 77 | 60 | 7.0 | 17.0 | 0.00 | 0.04 | 0.03 | 76 | 1013.3 |